Погода в Моряк-Рыболове

Россия / Приморский край     43°21′01″N   134°47′31″E
темп.,
°C
ветер,
м/с
пор.,
м/с
влажн.,
%
обл.,
%
осадки,
мм/ч
давл.,
гПа
погр.,
м
22 апреля, чт
чт2201:00+8ссз33530 0.0 102117
04:00+8с33530 0.0 102212
07:00+6св710650 0.0 1024104
10:00+6всв812620 0.0 1026240
13:00+6всв45694 0.0 1028171
16:00+6всв337164 0.0 1027172
19:00+5всв2270100 0.0 102761
22:00+4ссв117360 0.0 102810
23 апреля, пт
пт2301:00+4зюз117295 0.0 102810
04:00+4з226692 0.0 102711
07:00+5зюз226487 0.0 102613
10:00+6ююз456510 0.0 1026132
13:00+6юз6866100 0.0 1025189
16:00+7юз7969100 0.0 1022146
19:00+7зюз2371100 0.0 102130
22:00+9ссз2262100 0.0 102113
24 апреля, сб
сб2401:00+10ссз2260100 0.0 102114
04:00+9зсз2265100 0.0 102011
07:00+9с1171100 0.0 102015
10:00+10вюв1169100 0.0 1019152
13:00+9ююв4370100 0.0 1017190
16:00+9св4487100 1.0 101558
19:00+8с61083100 3.9 1017307
22:00+5св4689100 5.9 1019311
25 апреля, вс
вс2501:00+4з33850 0.3 101933
04:00+3сз34770 0.3 101847
07:00+3сз34732 0.0 101953
10:00+8зюз57503 0.0 1017680
13:00+10зсз594373 0.0 1015774
16:00+10сз6103516 0.0 1015747
19:00+9сз47380 0.0 1017597
22:00+6с43510 0.0 102122
26 апреля, пн
пн2601:00+4ссз33570 0.0 102328
04:00+3ссз11700 0.0 102311
07:00+3з33610 0.0 102344
10:00+5юз58580 0.0 1023285
13:00+6ююз1014554 0.0 1022331
16:00+6юз1218586 0.0 1020364
19:00+6юз12187039 0.0 1020308
22:00+5юз915835 0.0 1020242